Find Starlink 1648

NORAD ID: 46533 Int'l Des: 2020-070 Owner: SPXS Country: US Constellation: starlink decayed
LEOCIRCULAR
Vis

Historical Track — 30. März 2026

3D-Globus wird geladen...

Über Starlink 1648

Beschreibung wird geladen...

Höhenverlauf

Loading altitude history...

Zweizeiliger Elementsatz

1 46533U 20070B 26089.30838089 .10839954 12328-4 68759-3 0 9991
2 46533 53.0282 18.7772 0005930 230.3137 129.7387 16.41067097303522
Epoch: 30. März 2026 • Age: 1086 hours

Aktueller Status

Position data unavailable
Startdatum 6. Okt. 2020
Alter 5.6 years
Verglühungsdatum 30. März 2026
Typ internet

Technische Details

Klassifizierung Payload
Masse 260.00 kg
Trockenmasse 248.00 kg
Gesamtmasse 260.00 kg
Länge 0.20 m
Durchmesser 2.80 m
Spannweite 9.00 m
Form Box + pan
Hersteller SPXS
Bus-Typ Starlink
Phasenstatus Unknown Transfer Status
Besitzer/Staat SPXS/US

Most Searched